Wind_Speed
79 77 77 76 76 75 74 74 72 70 71 70 67 64 62 59 56 54 50 46 44 44 36 31 40 34 31 32 41 41 39 37 36 32 32 32 30 31 30 30 29 28 26
84 83 81 83 84 83 82 80 78 77 74 74 74 72 69 66 64 60 56 52 52 50 46 39 40 35 34 39 31 36 34 32 33 30 30 30 30 30 32 31 30 29 27
91 90 88 86 89 91 90 88 87 84 81 80 77 77 74 70 68 67 64 60 57 56 51 47 44 39 35 31 35 32 34 34 33 32 31 31 32 32 33 33 32 31 29
98 97 93 92 91 94 95 95 95 93 90 88 85 82 80 77 73 71 68 65 62 60 58 51 50 47 43 38 35 33 36 35 35 35 33 33 34 34 36 35 34 32 30
104 102 100 98 100 100 101 101 101 101 98 95 91 89 85 82 80 76 73 70 67 64 61 58 53 51 47 43 40 37 36 38 37 35 37 37 38 42 40 37 35 33 31
106 107 105 102 100 104 104 104 103 104 105 102 99 96 94 90 84 81 79 75 71 68 66 65 59 54 50 47 43 42 40 38 41 41 39 41 39 38 40 39 37 33 32
98 101 106 104 102 103 105 107 105 106 106 107 104 102 102 98 94 90 84 81 77 74 70 67 66 61 58 52 49 45 45 43 41 43 42 41 41 42 43 39 39 34 33
62 67 77 89 100 102 102 99 100 102 103 107 107 108 104 101 100 99 93 89 85 81 76 73 71 68 64 59 55 50 48 48 47 46 45 42 49 47 44 41 39 38 33
43 46 50 54 62 74 86 93 99 102 105 106 106 109 107 107 105 102 100 99 95 89 86 80 76 72 70 65 61 57 53 51 50 51 51 52 50 50 48 39 35 37 37
36 38 42 45 47 47 52 57 67 80 90 99 102 107 110 108 106 102 100 97 97 96 93 90 83 79 76 73 68 64 60 56 55 55 57 54 39 36 37 32 37 41 38
35 36 40 45 45 45 45 45 47 50 57 69 80 91 108 113 112 107 104 101 100 98 97 94 92 87 82 78 75 71 67 61 60 60 62 55 58 53 50 53 56 47 48
34 39 39 39 41 42 43 43 45 46 47 50 54 61 74 93 108 113 112 110 105 102 100 99 96 94 89 83 77 74 73 71 65 65 67 61 55 55 65 57 54 44 39
34 35 39 44 46 45 46 46 47 48 48 49 48 49 53 60 73 90 109 115 112 109 105 101 100 96 93 89 83 79 77 76 72 70 69 68 61 54 54 38 34 38 34
27 31 35 40 44 47 49 50 51 51 51 49 47 45 47 48 52 59 77 98 107 106 108 106 104 101 95 90 87 84 81 79 76 74 71 71 71 73 70 75 72 70 59
19 23 26 27 28 37 46 46 45 45 46 43 40 41 41 41 42 44 50 60 71 89 90 104 107 108 99 96 90 85 83 77 78 77 73 71 75 74 74 74 73 62 58
19 20 21 23 23 26 29 39 43 42 39 35 36 40 38 38 38 36 35 40 44 57 69 82 93 97 100 96 93 89 81 75 76 81 78 74 70 72 77 74 74 67 69
22 16 21 21 19 15 18 25 28 33 33 32 34 32 34 34 35 36 33 31 32 38 44 54 72 83 88 92 92 81 74 79 75 70 81 77 74 71 75 77 72 71 72
17 14 8 8 18 17 10 9 17 24 25 26 28 30 32 32 32 32 35 33 30 33 38 42 52 55 59 82 84 70 76 67 67 75 77 75 72 77 78 79 79 77 76
18 12 8 6 5 9 6 3 5 7 21 26 29 29 31 31 31 31 34 34 28 30 35 41 48 47 45 35 62 73 76 86 67 70 74 79 82 82 80 78 78 77 76
26 22 17 15 14 6 6 5 3 6 8 10 12 14 16 19 24 28 32 32 30 30 39 47 63 55 42 43 45 50 72 74 51 50 68 72 78 80 79 81 81 77 73
41 31 22 23 16 16 12 8 6 4 8 6 5 9 11 11 14 17 21 24 24 28 35 56 54 51 42 23 41 24 36 53 63 63 57 67 68 67 72 73 72 59 65
48 45 40 34 30 23 18 14 13 13 13 11 8 7 10 13 13 12 14 16 20 27 36 47 54 36 37 35 34 37 35 43 41 61 63 63 60 52 53 61 67 69 65
45 47 48 44 41 35 30 27 21 16 15 19 20 19 18 17 15 16 15 12 20 29 29 52 30 13 16 32 32 41 26 44 38 39 47 48 53 53 56 56 60 52 59
33 35 41 45 40 44 40 39 33 28 25 24 24 27 29 30 28 24 17 16 18 26 29 25 19 10 12 17 20 21 32 29 39 38 45 49 45 48 50 63 62 62 62
28 30 30 37 33 34 40 44 40 38 31 33 35 31 31 38 31 29 19 21 24 24 41 10 12 5 9 10 13 12 23 28 31 31 39 46 50 50 49 49 54 57 61
26 28 28 32 30 26 24 34 38 28 31 36 37 35 39 35 31 29 27 24 30 24 26 15 20 9 7 15 19 22 29 31 34 35 39 42 49 55 50 53 55 60 64
Wind_Direction
258 257 255 252 251 252 252 251 250 250 250 249 247 246 247 248 247 247 246 248 251 248 237 245 237 240 241 248 246 248 251 254 255 251 252 254 254 256 256 257 259 260 264
259 258 257 257 255 253 250 248 248 249 248 249 249 246 245 246 247 246 246 245 247 250 255 257 254 249 249 252 250 244 243 249 250 244 244 250 254 256 260 261 262 264 262
257 255 255 254 254 254 253 250 248 247 247 247 246 249 246 243 244 246 246 245 243 247 249 252 254 250 247 246 243 249 244 247 247 243 243 248 254 256 259 261 262 263 264
256 253 252 250 249 248 248 250 250 249 247 247 247 246 245 245 244 244 244 245 245 245 245 245 248 246 250 252 242 248 250 246 245 248 249 255 255 255 258 259 259 259 260
261 257 254 251 249 249 248 249 248 249 250 248 247 246 246 244 242 244 245 245 244 244 247 245 245 245 244 246 252 250 250 248 242 247 256 259 256 256 255 256 256 256 254
259 261 259 256 255 254 252 250 250 251 250 248 250 248 247 246 243 243 243 244 244 243 243 244 245 245 243 242 243 248 249 248 247 252 254 260 256 246 251 254 252 252 251
259 259 259 258 258 256 254 253 251 250 250 251 249 248 248 248 246 243 242 243 242 243 242 243 243 242 245 241 241 244 248 249 249 253 253 257 248 246 249 254 253 250 248
270 265 260 257 256 256 253 254 256 255 252 251 251 250 248 246 247 245 244 243 244 242 243 242 242 241 239 239 241 243 245 249 250 252 257 254 251 246 254 252 248 244 243
276 270 266 263 259 256 255 254 253 253 253 253 253 251 249 249 248 246 245 246 244 247 245 244 243 240 241 236 240 242 243 245 249 251 253 262 243 251 252 238 244 244 248
282 268 265 268 268 262 256 250 248 249 250 251 253 253 251 248 246 244 244 244 245 245 246 245 242 241 239 239 237 240 242 241 245 248 250 255 238 258 230 234 251 252 251
280 274 269 265 267 266 264 261 257 254 250 249 250 252 251 250 247 243 241 244 243 243 244 246 246 242 241 238 238 237 240 240 242 247 249 247 255 260 270 266 257 245 249
279 274 270 266 263 261 259 257 256 255 254 253 253 253 253 253 250 247 245 245 248 245 243 242 243 242 240 238 236 236 238 238 239 242 246 244 250 259 263 244 249 240 243
284 277 269 263 260 258 256 253 252 251 252 253 254 254 252 253 252 251 250 248 247 247 245 242 240 240 239 237 237 236 237 238 237 238 245 247 244 246 248 235 232 223 249
283 277 268 264 262 260 258 255 252 252 254 255 254 254 249 248 248 245 245 245 244 243 244 242 241 238 238 237 236 235 236 237 237 239 241 247 246 241 243 247 253 261 261
285 278 272 269 265 257 254 255 254 253 252 251 249 245 242 241 239 242 241 240 239 237 235 238 239 237 238 236 236 235 235 237 238 238 238 241 245 244 246 248 251 253 253
289 276 272 273 271 264 255 249 248 247 249 244 243 237 239 241 238 234 238 237 236 233 232 230 231 233 236 234 233 232 233 233 237 239 239 237 239 242 244 249 251 251 256
315 302 297 287 263 272 271 253 246 243 240 235 232 232 237 236 234 233 234 238 240 230 225 223 222 224 225 230 227 224 228 231 233 234 236 233 236 241 243 245 249 253 255
346 355 329 321 283 264 283 287 243 236 232 226 228 230 235 237 235 233 229 234 242 231 221 214 208 197 213 224 222 220 216 221 226 227 230 233 236 239 243 246 250 254 256
4 1 346 28 19 259 213 113 97 202 223 225 226 228 230 231 231 227 224 228 237 232 215 203 196 192 192 212 223 220 216 219 227 230 233 235 237 239 243 246 248 252 255
28 37 39 53 58 90 166 176 129 161 151 162 178 195 209 215 221 224 225 228 233 224 206 200 179 190 195 190 200 213 223 221 217 228 231 239 242 244 245 249 250 253 256
43 44 42 48 71 69 89 112 139 122 167 169 174 187 194 205 208 226 218 221 221 217 207 180 191 194 191 193 198 207 201 207 223 234 240 242 244 246 247 244 252 252 255
52 52 56 61 64 65 73 82 77 95 88 81 104 149 185 200 194 171 169 170 185 201 200 165 161 162 202 212 209 201 213 206 217 219 226 234 238 237 241 248 251 253 252
47 58 60 59 61 65 68 70 72 76 84 90 89 94 100 102 107 123 127 154 173 192 201 182 153 122 161 187 192 204 207 204 216 218 223 226 235 239 245 239 228 242 245
38 40 58 59 66 69 68 67 64 70 77 85 90 92 94 91 89 96 109 126 150 172 168 157 171 124 150 185 189 213 205 218 218 218 233 232 227 234 246 243 237 240 248
41 44 47 56 53 66 78 75 75 73 77 90 94 98 103 106 95 92 93 115 139 159 159 130 191 208 179 179 189 228 225 221 237 258 238 231 233 242 244 251 245 249 256
56 53 53 48 57 66 81 76 72 63 75 90 89 81 82 87 91 95 116 122 145 167 189 199 228 219 258 226 212 222 224 248 257 261 254 253 247 247 252 250 249 252 254
Height
5707 5708 5709 5711 5712 5713 5715 5718 5720 5722 5724 5726 5729 5734 5737 5740 5744 5747 5751 5754 5754 5757 5761 5765 5769 5773 5775 5779 5781 5785 5789 5792 5793 5794 5797 5800 5800 5801 5803 5804 5804 5806 5807
5682 5683 5685 5688 5690 5692 5694 5696 5700 5703 5707 5711 5714 5717 5721 5726 5730 5734 5739 5744 5746 5747 5751 5757 5761 5765 5767 5770 5774 5777 5779 5783 5785 5786 5789 5793 5794 5795 5797 5798 5799 5800 5801
5654 5655 5658 5661 5664 5667 5671 5674 5678 5683 5687 5691 5696 5701 5706 5710 5715 5720 5725 5730 5735 5738 5742 5746 5750 5756 5758 5761 5765 5768 5771 5774 5777 5779 5780 5783 5786 5788 5789 5791 5792 5793 5795
5623 5627 5630 5632 5634 5637 5643 5649 5654 5659 5665 5670 5676 5681 5687 5695 5700 5705 5710 5716 5722 5727 5731 5736 5741 5745 5749 5751 5756 5759 5763 5766 5769 5772 5773 5775 5777 5779 5781 5783 5785 5786 5787
5592 5594 5599 5604 5605 5609 5615 5622 5628 5634 5641 5647 5654 5661 5668 5675 5682 5688 5695 5701 5707 5713 5718 5724 5729 5734 5739 5743 5748 5751 5755 5758 5760 5763 5765 5766 5768 5769 5771 5774 5776 5778 5779
5559 5561 5567 5573 5577 5583 5588 5594 5600 5607 5615 5623 5630 5638 5646 5654 5662 5669 5677 5684 5691 5698 5704 5710 5717 5723 5728 5733 5738 5742 5746 5749 5752 5754 5756 5756 5758 5759 5762 5764 5766 5770 5771
5530 5530 5534 5539 5544 5551 5559 5565 5571 5580 5588 5593 5603 5613 5621 5631 5641 5650 5657 5664 5672 5680 5688 5695 5701 5710 5717 5722 5726 5731 5735 5740 5742 5744 5746 5747 5749 5750 5751 5755 5759 5761 5763
5500 5503 5505 5511 5517 5520 5528 5536 5542 5551 5561 5566 5574 5582 5597 5607 5617 5623 5637 5645 5651 5660 5669 5677 5686 5693 5702 5709 5715 5721 5724 5728 5732 5734 5736 5738 5741 5742 5745 5746 5750 5754 5754
5485 5484 5486 5488 5493 5495 5501 5509 5515 5521 5530 5536 5545 5553 5565 5578 5586 5601 5613 5621 5630 5639 5649 5658 5669 5678 5685 5694 5702 5708 5712 5717 5720 5723 5727 5713 5726 5732 5734 5737 5740 5746 5747
5474 5472 5472 5471 5473 5475 5478 5484 5487 5493 5499 5510 5512 5523 5534 5546 5560 5576 5585 5597 5605 5615 5627 5638 5649 5659 5668 5677 5686 5694 5700 5705 5708 5712 5715 5714 5716 5721 5723 5726 5730 5735 5737
5462 5460 5459 5459 5459 5460 5461 5464 5467 5470 5475 5480 5486 5493 5504 5514 5530 5544 5561 5571 5576 5592 5603 5615 5628 5641 5651 5660 5670 5678 5685 5693 5698 5701 5704 5706 5710 5714 5716 5716 5717 5720 5725
5450 5448 5448 5447 5447 5448 5449 5452 5454 5456 5460 5464 5468 5472 5476 5483 5498 5510 5528 5546 5550 5564 5578 5592 5605 5618 5632 5643 5653 5662 5669 5677 5682 5687 5691 5697 5703 5704 5699 5697 5704 5708 5712
5440 5437 5433 5432 5433 5435 5437 5440 5443 5445 5448 5451 5455 5458 5460 5466 5471 5481 5494 5515 5521 5536 5550 5568 5583 5597 5611 5623 5635 5644 5653 5659 5666 5672 5678 5684 5692 5692 5693 5690 5693 5697 5704
5429 5425 5421 5420 5420 5420 5422 5424 5428 5432 5434 5438 5442 5446 5448 5453 5455 5460 5467 5478 5493 5508 5522 5544 5555 5575 5586 5600 5615 5625 5633 5642 5651 5658 5666 5670 5676 5679 5680 5682 5682 5688 5695
5420 5415 5412 5409 5407 5407 5408 5410 5413 5418 5422 5426 5430 5433 5436 5441 5445 5449 5452 5457 5466 5481 5496 5512 5533 5547 5562 5579 5595 5606 5616 5627 5635 5643 5650 5656 5658 5664 5665 5669 5673 5676 5678
5411 5407 5404 5401 5399 5397 5396 5397 5400 5404 5409 5413 5418 5422 5427 5432 5437 5441 5443 5447 5453 5463 5474 5487 5504 5523 5539 5557 5575 5586 5599 5609 5616 5625 5636 5640 5642 5646 5652 5656 5658 5661 5665
5406 5401 5398 5394 5393 5391 5390 5389 5391 5395 5399 5404 5409 5414 5420 5423 5427 5433 5437 5440 5445 5451 5459 5466 5487 5504 5519 5538 5554 5567 5581 5592 5599 5609 5616 5624 5628 5633 5638 5642 5644 5647 5652
5402 5397 5393 5389 5387 5388 5387 5385 5385 5389 5393 5398 5403 5407 5412 5416 5420 5425 5430 5435 5439 5444 5449 5460 5474 5493 5507 5520 5537 5549 5567 5574 5584 5593 5600 5608 5615 5621 5624 5627 5632 5635 5638
5401 5396 5390 5387 5384 5384 5386 5386 5385 5385 5388 5392 5397 5401 5405 5409 5414 5419 5424 5429 5434 5437 5444 5453 5465 5484 5503 5513 5524 5535 5549 5561 5570 5578 5588 5595 5600 5605 5610 5614 5618 5623 5626
5403 5398 5393 5388 5386 5384 5386 5387 5388 5388 5389 5391 5395 5398 5402 5405 5408 5413 5418 5424 5429 5433 5440 5449 5462 5480 5493 5505 5516 5530 5542 5557 5564 5569 5575 5580 5586 5592 5597 5602 5606 5609 5611
5412 5405 5399 5394 5392 5390 5389 5389 5390 5391 5391 5394 5395 5398 5400 5403 5406 5410 5414 5421 5426 5431 5440 5452 5462 5473 5486 5497 5507 5523 5531 5543 5552 5560 5566 5567 5573 5580 5584 5588 5591 5595 5596
5424 5416 5409 5403 5399 5396 5394 5394 5394 5393 5395 5395 5396 5398 5400 5403 5406 5410 5414 5421 5426 5431 5441 5452 5467 5480 5486 5496 5506 5518 5524 5531 5541 5550 5549 5554 5560 5565 5567 5572 5579 5581 5582
5439 5430 5422 5416 5410 5406 5403 5401 5400 5400 5399 5399 5400 5402 5404 5407 5410 5414 5419 5426 5435 5438 5443 5454 5464 5475 5486 5497 5505 5514 5519 5527 5532 5537 5541 5545 5547 5551 5555 5558 5561 5565 5567
5451 5444 5437 5430 5424 5419 5415 5412 5410 5409 5408 5408 5408 5409 5412 5415 5419 5423 5429 5434 5440 5450 5454 5463 5470 5475 5481 5487 5495 5504 5511 5515 5521 5526 5530 5532 5534 5539 5543 5545 5548 5550 5553
5460 5454 5448 5440 5436 5432 5427 5425 5423 5422 5421 5420 5420 5420 5423 5424 5429 5432 5438 5442 5448 5455 5461 5466 5471 5475 5479 5482 5487 5493 5499 5505 5510 5512 5515 5520 5522 5525 5528 5531 5534 5537 5538
5468 5464 5460 5452 5443 5440 5439 5437 5436 5435 5435 5431 5431 5433 5436 5438 5440 5445 5448 5453 5457 5463 5467 5470 5472 5474 5478 5482 5484 5488 5490 5492 5496 5498 5502 5505 5509 5512 5514 5517 5520 5522 5524